{"data":{"norad_id":52869,"epoch":"2026-05-24T22:48:09.134208Z","epoch_age_seconds":78572,"freshness":"FRESH","line1":"1 52869U 22062AR  26144.95010572  .00000525  00000+0  51055-4 0  9999","line2":"2 52869  53.2157  31.7745 0001208  90.8552 269.2578 15.08839836217574","mean_motion":15.08839836,"eccentricity":0.0001208,"inclination_deg":53.2157,"raan_deg":31.7745,"arg_perigee_deg":90.8552,"mean_anomaly_deg":269.2578,"bstar":5.1055e-5,"rev_number":21757,"period_min":95.437565051139,"perigee_km":538.908210235,"apogee_km":540.57957025808,"semimajor_km":6917.8808902465,"source":"CELESTRAK","updated_at":"2026-05-25T13:38:17.249362Z"}}